星链-1497 (STARLINK-1497 )

导读 | 豆包AI

STARLINK-1497是美国SpaceX公司星链计划中的一颗卫星,于2020年6月13日发射升空。星链计划旨在构建全球卫星互联网星座,为全球提供高速宽带服务,该卫星入轨后,助力星链网络逐步完善全球覆盖,推动卫星互联网技术发展与全球互联进程。

基本信息
目录编号:
45781
目录名称:
STARLINK-1497
国际标识:
2020-038BD
轨道中心:
EARTH
卫星名称:
星链-1497
卫星全名:
星链-1497 (STARLINK-1497 )
卫星状态:
已陨落 最后检测时间 2026-02-12
发射日期:
2020-06-13 UTC
国别 :
美国 (US)
星等 :
--
轨道信息
数据来源 国际轨道数据
星历时间: 2026-02-12T18:17:21+0800
轨道信息已过期50天
半长轴: 6516.518km
偏心率: 0.0004619
轨道倾角: 53.008°
近地点辐角 305.863°
升交点赤经 203.130°
平近点角 54.200°
近地点: 135.371km
远地点: 141.391km
周期: 87.254分钟
每日圈数: 16.503626
详细信息
固有亮度:
5
最大亮度:
2.5
卫星平台:
Starlink V1.0
覆盖范围:
全球
运营商:
太空探索技术公司
运营商所在国:
美国
制造商(研发单位):
太空探索技术公司
制造商所在国:
美国
使用方式:
暂无
卫星简介
星链(Starlink)计划是由太空探索技术公司(SpaceX)提出的一个巨型低轨卫星互联网星座项目,计划在2019年至2024年间在太空搭建由约1.2万颗卫星组成的“星链”网络,其中1584颗将部署在地球上空550千米处的近地轨道,并从2020年开始工作。该卫星仍在工作。